{"data":{"norad_id":53415,"intl_designator":"2022-097AD","name":"STARLINK-4479","alt_names":[],"object_type":"PAYLOAD","status":"ACTIVE","operator":null,"country":"US","launch_date":"2022-08-10","launch_site_code":"AFETR","launch_vehicle":null,"mission":null,"orbit_class":"UNKNOWN","rcs_meters":null,"size_class":null,"mass_kg":null,"dimensions":null,"purposes":["comms"],"wikipedia_slug":null,"has_3d_model":false,"image_url":null,"decayed_at":null,"tle_current":{"epoch":"2026-09-19T18:25:02.221248Z","epoch_age_seconds":138758,"freshness":"FRESH","line1":"1 53415U 22097AD  26262.76738682  .00000392  00000+0  24404-4 0  9994","line2":"2 53415  53.1614 310.2257 0001454  72.7982 287.3178 15.31705298228097","mean_motion":15.31705298,"eccentricity":0.0001454,"inclination_deg":53.1614,"raan_deg":310.2257,"arg_perigee_deg":72.7982,"mean_anomaly_deg":287.3178,"bstar":2.4404e-5,"rev_number":22809,"period_min":94.012862779822,"perigee_km":469.72837779005,"apogee_km":471.72002662766,"semimajor_km":6848.8612022089,"source":"CELESTRAK","updated_at":"2026-09-20T09:00:40.228620Z"}}}